Weather Roundup
Issued by NWS

Home | Current Version | Previous Version | Graphics & Text | Print | Product List | Glossary Off
Versions: 1 2 3 4 5 6 7 8 9 10 11 12 13 14 15 16 17 18 19 20 21 22 23 24 25 26 27 28 29 30 31 32 33 34 35 36 37 38 39 40 41 42 43 44 45 46 47 48 49 50

394
NZUS93 KARX 231459
HRRWXR

CURRENT HOURLY OBSERVATIONS ACROSS
MUCH OF THE UPPER MISSISSIPPI VALLEY
NATIONAL WEATHER SERVICE LA CROSSE WI
1000 AM CDT SAT JUL 23 2016


...SOUTHEAST MINNESOTA...


CITY           SKY/WX    TMP DP  RH WIND       PRES   REMARKS
ROCHESTER      TSTM      74  72  93 SE8       29.94R FOG
ROCHESTER/MAYO CLOUDY    75  75 100 E7        29.95R
WINONA         RAIN      73  72  94 SE8G17    29.93S
AUSTIN         TSTM      73  70  88 CALM      29.95R
ALBERT LEA     DRIZZLE   72  72 100 SE6       29.92R
DODGE CENTER   TSTM      72  66  83 S16       29.97R
PRESTON        CLOUDY    72  68  89 NE8       29.98R
OWATONNA       TSTM      73  70  88 S6G24     29.89S
FARIBAULT      TSTM      73  72  94 SW8G47    29.97R VSB 1
$$

...ELSEWHERE IN MINNESOTA...


CITY           SKY/WX    TMP DP  RH WIND       PRES   REMARKS
MINNEAPOLIS    CLOUDY    81  73  76 E13       29.86F
INTNL FALLS    CLOUDY    70  60  70 SE6       29.93S
DULUTH         CLOUDY    76  60  57 E14       29.96F
RED WING       CLOUDY    79  73  83 E9        29.87S
REDWOOD FALLS  LGT RAIN  70  67  90 W14       29.87R
MANKATO        CLOUDY    72  68  88 E13       29.89R THUNDER
WORTHINGTON    LGT RAIN  77  75  93 S7        29.85F
FAIRMONT       CLOUDY    75  70  83 SE8       29.87R
$$

...SOUTHWEST WISCONSIN...


CITY           SKY/WX    TMP DP  RH WIND       PRES   REMARKS
LA CROSSE      TSTM      73  71  93 VRB5      29.99R VSB 1
PRAIRIE DU CHI LGT RAIN  71  69  95 NE3       29.96R
BOSCOBEL       TSTM      73  70  90 W12G21    29.98F VSB 1/2
LONE ROCK      NOT AVBL
PLATTEVILLE    CLOUDY    79  79 100 E3        30.00R
FORT MC COY    CLOUDY    78  74  87 SE6       29.98R
MAUSTON-NEW LI CLOUDY    78  74  86 SE3       29.98R
VIROQUA        CLOUDY    69  69 100 S10G25    29.99F
WIS DELLS      NOT AVBL
$$

...ELSEWHERE IN WISCONSIN...


CITY           SKY/WX    TMP DP  RH WIND       PRES   REMARKS
MILWAUKEE      MOSUNNY   88  75  65 E9        29.97F HX  97
MADISON        CLOUDY    83  77  82 SE5       30.00R HX  92
GREEN BAY      SUNNY     81  66  60 NE10      29.98F
EAU CLAIRE     NOT AVBL
BLACK RVR FLS  FAIR      82  69  64 SE5       29.95S
MEDFORD        SUNNY     79  67  67 E6        29.98F
WAUSAU         SUNNY     83  63  50 SE8       29.97F
WIS RAPIDS     MOSUNNY   85  67  54 SE8       29.99F
MARSHFIELD     MOSUNNY   82  69  64 SE9       29.98F
RICE LAKE      CLOUDY    78  66  66 E6        29.94F
$$

...NORTHEAST IOWA...


CITY           SKY/WX    TMP DP  RH WIND       PRES   REMARKS
WATERLOO       CLOUDY    79  77  94 SE6       29.92R
DUBUQUE        CLOUDY    79  77  94 SE7       29.99S
DECORAH        LGT RAIN  72  72 100 E8        30.00R
MASON CITY     LGT RAIN  77  75  93 SE8       29.93F
CHARLES CITY   CLOUDY    73  73 100 E8G20     29.97R
OELWEIN        CLOUDY    79  77  94 E6        29.96R
$$

...ELSEWHERE IN IOWA...


CITY           SKY/WX    TMP DP  RH WIND       PRES   REMARKS
DES MOINES     PTSUNNY   86  77  74 S12       29.87F HX  97
IOWA CITY      MOSUNNY   83  79  88 SE12      29.95F HX  94
FORT DODGE     CLOUDY    79  77  94 SE8       29.87S
MARSHALLTOWN   CLOUDY    83  78  85 SE8       29.90F HX  93
CEDAR RAPIDS   CLOUDY    82  80  94 SE9       29.94F HX  94
$$

...NORTHERN ILLINOIS...


CITY           SKY/WX    TMP DP  RH WIND       PRES   REMARKS
CHICAGO-OHARE  PTSUNNY   86  75  69 VRB3      29.98S HX  95
CHICAGO-MIDWAY PTSUNNY   87  76  69 CALM      29.98S HX  97
MOLINE         MOSUNNY   87  78  74 SE8       29.96F HX 100
ROCKFORD       PTSUNNY   85  77  77 S5        29.99S HX  95
PEORIA         SUNNY     84  77  79 S7        30.00R HX  94
$$

NOTE: "FAIR" INDICATES FEW OR NO CLOUDS BELOW 12,000 FEET WITH NO
SIGNIFICANT WEATHER AND/OR OBSTRUCTIONS TO VISIBILITY. WIND
SPEEDS ARE IN MILES-PER-HOUR.




USA.gov is the U.S. government's official web portal to all federal, state and local government web resources and services.